Regional Weather Roundup
Issued by NWS Goodland, KS

Home | Current Version | Previous Version | Text Only | Print | Product List | Glossary On
Versions: 1 2 3 4 5 6 7 8 9 10 11 12 13 14 15 16 17 18 19 20 21 22 23 24 25 26 27 28 29 30 31 32 33 34 35 36 37 38 39 40 41 42 43 44 45 46 47 48 49 50
000
ASUS43 KGLD 231408
RWRGLD

GOODLAND FORECAST AREA HOURLY WEATHER ROUNDUP
NATIONAL WEATHER SERVICE GOODLAND KS
800 AM MDT THU OCT 23 2014

...OFFICIAL OBSERVATIONS...

CITY           SKY/WX    TMP DP  RH WIND       PRES   REMARKS
GOODLAND KS    PTCLDY    46  43  89 W5        30.15R
HILL CITY KS   FOG       54  54 100 CALM      30.10R VSB 1/4
IMPERIAL NEB   CLEAR     43  34  70 W3        30.12R
MCCOOK NEB     FOG       46  46 100 SW5       30.12R VSB<1/4
AKRON CO       PTCLDY    45  41  86 W14       30.15R
BURLINGTON CO  MOCLDY    45  42  89 W3        30.16R
LIMON CO       CLEAR     37  35  92 MISG      30.19R
$$

...UNOFFICIAL OBSERVATIONS...

CITY           SKY/WX    TMP DP  RH WIND       PRES   REMARKS
GOVE KS          N/A     52  32  46 MISG        N/A
SHARON SPRINGS   N/A     47  46  95 CALM        N/A
TRENTON NEB      N/A     43  32  65 CALM        N/A
KIT CARSON CO    N/A     48  44  87 CALM        N/A
$$



USA.gov is the U.S. government's official web portal to all federal, state and local government web resources and services.